FW6636 Weather Reports


time (UTC)temp
C
wind
direction
speed
KPH
gust
KPH
rain 1hr
cm
rain 24hr
cm
rain mn
cm
humidity
%
barometer
mb
20260504192052 21 237 11.3 27.4 0.00 0.00 0.00 33 1009.8
20260504191613 21 236 12.9 29.0 0.00 0.00 0.00 35 1009.8
20260504191052 21 204 14.5 29.0 0.00 0.00 0.00 37 1009.8
20260504190550 21 229 11.3 29.0 0.00 0.00 0.00 35 1009.9
20260504190051 20 194 14.5 30.6 0.00 0.00 0.00 35 1009.8
20260504185549 20 203 16.1 35.4 0.00 0.00 0.00 41 1009.9
20260504185049 20 237 17.7 35.4 0.00 0.00 0.00 37 1010.0
20260504184601 20 169 8.0 30.6 0.00 0.00 0.00 37 1010.0
20260504184052 20 264 12.9 30.6 0.00 0.00 0.00 34 1010.2
20260504183550 20 206 12.9 32.2 0.00 0.00 0.00 36 1010.2
20260504183052 20 138 16.1 32.2 0.00 0.00 0.00 39 1010.3
20260504182557 20 250 11.3 30.6 0.00 0.00 0.00 35 1010.3
20260504182052 20 186 14.5 27.4 0.00 0.00 0.00 41 1010.3
20260504181552 20 203 9.7 29.0 0.00 0.00 0.00 39 1010.5
20260504181049 20 173 14.5 29.0 0.00 0.00 0.00 37 1010.5
20260504180553 20 166 16.1 27.4 0.00 0.00 0.00 37 1010.5
20260504180053 20 184 6.4 29.0 0.00 0.00 0.00 35 1010.7
20260504175549 20 198 14.5 29.0 0.00 0.00 0.00 40 1010.6
20260504175053 20 192 11.3 29.0 0.00 0.00 0.00 38 1010.6
20260504174555 20 252 9.7 22.5 0.00 0.00 0.00 38 1010.7
20260504174052 20 188 11.3 24.1 0.00 0.00 0.00 38 1010.8
20260504173551 20 196 11.3 25.7 0.00 0.00 0.00 35 1010.8
20260504173056 20 233 12.9 30.6 0.00 0.00 0.00 41 1010.9
20260504172548 19 183 14.5 33.8 0.00 0.00 0.00 38 1011.0
20260504172052 20 262 14.5 33.8 0.00 0.00 0.00 38 1011.2
20260504171552 19 202 14.5 37.0 0.00 0.00 0.00 38 1011.1
20260504171053 19 207 14.5 37.0 0.00 0.00 0.00 42 1011.2
20260504170550 19 231 14.5 29.0 0.00 0.00 0.00 37 1011.3
20260504151052 17 201 11.3 24.1 0.00 0.00 0.00 38 1012.5
20260504150552 17 221 11.3 22.5 0.00 0.00 0.00 39 1012.6
20260504141051 15 198 11.3 32.2 0.00 0.00 0.00 44 1013.0
20260504140548 15 204 12.9 32.2 0.00 0.00 0.00 40 1012.9
20260504140104 15 198 8.0 17.7 0.00 0.00 0.00 45 1013.0
20260504130549 12 198 8.0 17.7 0.00 0.00 0.00 43 1013.3
20260504110549 5 0 0.0 0.0 0.00 0.00 0.00 75 1013.5
20260504100551 3 0 0.0 0.0 0.00 0.00 0.00 70 1013.2
20260504081601 6 0 0.0 6.4 0.00 0.00 0.00 57 1013.6
20260504081049 6 221 3.2 6.4 0.00 0.00 0.00 57 1013.7
20260504080549 6 213 1.6 6.4 0.00 0.00 0.00 57 1013.5
20260504060107 7 192 0.0 3.2 0.00 0.00 0.00 54 1013.5
20260504050552 7 198 3.2 8.0 0.00 0.00 0.00 53 1013.5
20260504050108 7 205 3.2 8.0 0.00 0.00 0.00 53 1013.5
20260504045551 7 211 4.8 11.3 0.00 0.00 0.00 53 1013.5
20260504045049 8 198 4.8 11.3 0.00 0.00 0.00 52 1013.4
20260504044555 8 219 4.8 11.3 0.00 0.00 0.00 50 1013.4
20260504044048 8 204 3.2 9.7 0.00 0.00 0.00 50 1013.5
20260504043549 8 209 4.8 9.7 0.00 0.00 0.00 49 1013.5
20260504043103 8 207 3.2 8.0 0.00 0.00 0.00 49 1013.4
20260504042551 8 209 3.2 9.7 0.00 0.00 0.00 50 1013.3
20260504042048 8 188 4.8 14.5 0.00 0.00 0.00 49 1013.3
20260504041555 8 200 4.8 14.5 0.00 0.00 0.00 49 1013.4
20260504041049 8 210 4.8 8.0 0.00 0.00 0.00 48 1013.3
20260504040549 8 265 3.2 9.7 0.00 0.00 0.00 50 1013.2
20260504035548 8 252 3.2 8.0 0.00 0.00 0.00 49 1013.1
20260504035049 8 236 4.8 9.7 0.00 0.00 0.00 48 1013.1
20260504034556 9 258 4.8 9.7 0.00 0.00 0.00 47 1013.0
20260504034048 9 223 4.8 9.7 0.00 0.00 0.00 47 1013.1
20260504033548 9 217 4.8 9.7 0.00 0.00 0.00 48 1013.0
20260504033059 9 236 3.2 8.0 0.00 0.00 0.00 50 1013.0
20260504032551 9 240 1.6 6.4 0.00 0.00 0.00 47 1013.0
20260504032052 9 233 1.6 6.4 0.00 0.00 0.00 47 1013.0
20260504031602 9 215 3.2 8.0 0.00 0.00 0.00 47 1013.0
20260504031049 9 219 3.2 8.0 0.00 0.00 0.00 47 1012.9
20260504030550 9 240 3.2 6.4 0.00 0.00 0.00 48 1012.8
20260504030111 10 238 3.2 9.7 0.00 0.00 0.00 46 1012.8
20260504025549 10 246 3.2 9.7 0.00 0.00 0.00 45 1012.9
20260504025050 10 225 4.8 11.3 0.00 0.00 0.00 45 1013.0
20260504024553 10 226 3.2 11.3 0.00 0.00 0.00 45 1012.9
20260504024048 10 253 3.2 9.7 0.00 0.00 0.00 46 1012.9
20260504023549 10 245 3.2 6.4 0.00 0.00 0.00 44 1012.8
20260504023054 10 262 3.2 11.3 0.00 0.00 0.00 44 1012.9
20260504022549 10 234 3.2 11.3 0.00 0.00 0.00 43 1012.9
20260504022051 10 243 3.2 12.9 0.00 0.00 0.00 45 1012.9
20260504021556 10 254 4.8 12.9 0.00 0.00 0.00 43 1012.9
20260504021052 10 255 4.8 8.0 0.00 0.00 0.00 42 1013.0
20260504020548 10 199 4.8 11.3 0.00 0.00 0.00 42 1012.8
20260504020052 11 267 3.2 12.9 0.00 0.00 0.00 41 1012.8
20260504015548 11 242 4.8 12.9 0.00 0.00 0.00 42 1012.9
20260504015051 11 230 3.2 14.5 0.00 0.00 0.00 41 1012.9
20260504014556 11 208 4.8 14.5 0.00 0.00 0.00 44 1012.7
20260504014052 11 215 3.2 12.9 0.00 0.00 0.00 41 1012.7
20260504013551 11 229 4.8 12.9 0.00 0.00 0.00 40 1012.7
20260504013051 11 246 3.2 11.3 0.00 0.00 0.00 41 1012.8
20260504012549 11 253 4.8 11.3 0.00 0.00 0.00 40 1012.7
20260504012048 11 227 3.2 11.3 0.00 0.00 0.00 41 1012.7
20260504011552 11 231 3.2 11.3 0.00 0.00 0.00 40 1012.7
20260504011048 11 240 3.2 11.3 0.00 0.00 0.00 40 1012.5
20260504010548 11 231 3.2 14.5 0.00 0.00 0.00 40 1012.6
20260504010053 11 232 4.8 14.5 0.00 0.00 0.00 39 1012.4
20260504005552 11 239 4.8 14.5 0.00 0.00 0.00 39 1012.4
20260504005049 11 224 3.2 9.7 0.00 0.00 0.00 39 1012.5
20260504004551 11 246 3.2 14.5 0.00 0.00 0.00 38 1012.4
20260504004048 12 239 4.8 14.5 0.00 0.00 0.00 37 1012.3
20260504003551 12 235 4.8 14.5 0.00 0.00 0.00 37 1012.2
20260504003054 12 223 4.8 11.3 0.00 0.00 0.00 38 1012.1
20260504002551 12 238 4.8 11.3 0.00 0.00 0.00 37 1012.1
20260504002048 12 208 4.8 14.5 0.00 0.00 0.00 36 1012.0
20260504001555 12 285 6.4 14.5 0.00 0.00 0.00 36 1012.0
20260504001049 12 295 6.4 16.1 0.00 0.00 0.00 36 1012.0
20260504000549 12 248 4.8 20.9 0.00 0.00 0.00 36 1012.1
20260504000125 12 266 9.7 20.9 0.00 0.00 0.00 36 1012.0
20260503235549 12 237 8.0 19.3 0.00 0.00 0.00 36 1011.9
20260503235049 12 271 4.8 12.9 0.00 0.00 0.00 36 1011.9
20260503234552 12 215 4.8 19.3 0.00 0.00 0.00 36 1011.9
20260503234049 13 252 8.0 19.3 0.00 0.00 0.00 34 1011.7
20260503233549 13 242 8.0 20.9 0.00 0.00 0.00 33 1011.8
20260503233054 13 264 9.7 20.9 0.00 0.00 0.00 33 1011.6
20260503232551 13 254 8.0 27.4 0.00 0.00 0.00 34 1011.5
20260503232049 13 232 8.0 27.4 0.00 0.00 0.00 33 1011.5
20260503231552 13 317 11.3 27.4 0.00 0.00 0.00 34 1011.6
20260503231050 13 271 4.8 25.7 0.00 0.00 0.00 32 1011.6
20260503230552 14 296 12.9 25.7 0.00 0.00 0.00 31 1011.5
20260503230055 14 282 11.3 24.1 0.00 0.00 0.00 31 1011.5
20260503225549 14 248 11.3 27.4 0.00 0.00 0.00 31 1011.6
20260503225049 14 277 14.5 27.4 0.00 0.00 0.00 32 1011.4
20260503224553 14 292 14.5 27.4 0.00 0.00 0.00 32 1011.4
20260503224052 14 318 9.7 27.4 0.00 0.00 0.00 32 1011.5
20260503223552 14 294 11.3 27.4 0.00 0.00 0.00 32 1011.4
20260503223055 14 271 8.0 25.7 0.00 0.00 0.00 31 1011.3
20260503222554 14 293 11.3 25.7 0.00 0.00 0.00 33 1011.4
20260503222053 14 227 9.7 25.7 0.00 0.00 0.00 32 1011.4
20260503221550 14 268 16.1 25.7 0.00 0.00 0.00 32 1011.4
20260503221056 14 32 12.9 22.5 0.00 0.00 0.00 32 1011.4
20260503220553 14 304 11.3 22.5 0.00 0.00 0.00 32 1011.4
20260503220055 14 263 11.3 22.5 0.00 0.00 0.00 32 1011.4
20260503215554 14 298 12.9 37.0 0.00 0.00 0.00 30 1011.4
20260503215052 14 291 16.1 37.0 0.00 0.00 0.00 31 1011.3
20260503214552 15 66 16.1 33.8 0.00 0.00 0.00 31 1011.3
20260503214056 14 257 11.3 20.9 0.00 0.00 0.00 31 1011.3
20260503213554 14 291 4.8 32.2 0.00 0.00 0.00 33 1011.3
20260503213051 13 277 9.7 32.2 0.00 0.00 0.00 31 1011.3
20260503212552 14 285 11.3 32.2 0.00 0.00 0.00 31 1011.3
20260503212054 14 281 9.7 24.1 0.00 0.00 0.00 29 1011.1
20260503211552 14 321 11.3 20.9 0.00 0.00 0.00 31 1011.2
20260503211052 14 312 9.7 17.7 0.00 0.00 0.00 29 1011.2
20260503210552 15 285 9.7 20.9 0.00 0.00 0.00 34 1011.1
20260503210054 14 246 9.7 20.9 0.00 0.00 0.00 30 1011.0
20260503205554 13 285 9.7 22.5 0.00 0.00 0.00 32 1011.1
20260503205054 13 252 9.7 27.4 0.00 0.00 0.00 30 1011.2
20260503204555 14 314 17.7 30.6 0.00 0.00 0.00 28 1011.1
20260503204052 15 275 9.7 30.6 0.00 0.00 0.00 32 1011.1
20260503203556 15 240 12.9 24.1 0.00 0.00 0.00 31 1011.2
20260503203052 14 273 12.9 24.1 0.00 0.00 0.00 30 1011.1
20260503202553 14 328 12.9 29.0 0.00 0.00 0.00 29 1011.2
20260503202056 14 8 12.9 29.0 0.00 0.00 0.00 29 1011.4
20260503201554 14 265 8.0 32.2 0.00 0.00 0.00 30 1011.2
20260503201056 13 8 9.7 33.8 0.00 0.00 0.00 34 1011.3
20260503200552 13 308 19.3 33.8 0.00 0.00 0.00 29 1011.5
20260503200055 13 273 17.7 32.2 0.00 0.00 0.00 29 1011.4
20260503195552 13 298 16.1 32.2 0.00 0.00 0.00 28 1011.3
20260503195052 13 247 11.3 29.0 0.00 0.00 0.00 29 1011.4
20260503194558 13 291 9.7 32.2 0.00 0.00 0.00 30 1011.7
20260503194053 13 269 14.5 32.2 0.00 0.00 0.00 27 1011.6
20260503193553 14 241 17.7 29.0 0.00 0.00 0.00 31 1011.7
20260503193100 14 267 9.7 30.6 0.00 0.00 0.00 34 1011.8
20260503192553 13 336 14.5 30.6 0.00 0.00 0.00 30 1011.8